Tracking 28052 objects as of 24-Sep-2023
HD Live streaming from Space Station
objects crossing your sky now

COSMOS 886 DEB

Track COSMOS 886 DEB now!
10-day predictions


NORAD ID: 19475
Int'l Code: 1976-126CD
Perigee: 597.8 km
Apogee: 1,863.5 km
Inclination: 65.8 °
Period: 109.9 minutes
Semi major axis: 7601 km
RCS: 0.0088 m2 (small)
Launch date: December 27, 1976
Source: Commonwealth of Independent States (former USSR) (CIS)
Launch site: TYURATAM MISSILE AND SPACE COMPLEX (TTMTR)

Note: This is SATELLITE DEBRIS
Your satellite tracking list
Your tracking list is empty




NASA's NSSDC Master Catalog

Two Line Element Set (TLE):
1 19475U 76126CD  23267.46675622  .00001820  00000-0  92627-3 0  9996
2 19475  65.8299  70.4316 0832535 310.6629  42.4835 13.09912237578576
Source of the keplerian elements: AFSPC